STARLINK-34588

Last updated on Sat Aug 02 2025 00:02:05 GMT+0000 (Coordinated Universal Time)

1 64729U 25144F 25213.16072269 .00051233 00000+0 12817-2 0 9994 2 64729 53.1600 127.0995 0001187 85.6285 274.4856 15.39631962 5926
UTC large
Height (km)
Speed (km/s)
/
Latitude / Longitude
Inclination (degrees)
Orbital Period (minutes)
Azimuth
Elevation
Range (km)
Doppler Factor

Next 0 passes for location: London (51.5072 / 0.1276)

Sorry there are no passes over London.